Wind_Speed
32 34 32 31 34 36 36 35 33 29 31 35 36 36 35 34 33 32 30 27 24 23 23 24 26 28 28 26 26 27 27 28 29 28 28 28 30 31 33 34 35 36 38 39
34 31 30 34 37 38 38 38 35 31 33 38 39 39 38 37 35 32 30 28 26 24 24 25 27 28 28 27 28 30 31 32 33 33 33 34 35 36 37 38 39 40 42 44
36 31 33 37 39 39 39 37 34 33 36 41 42 43 41 39 38 34 30 28 26 25 25 27 29 29 29 29 31 33 35 36 38 39 39 40 40 40 40 41 43 44 45 48
33 32 34 37 39 39 39 36 36 36 39 42 44 46 43 42 40 36 31 28 26 26 28 31 32 32 31 32 34 36 39 41 42 43 43 44 43 42 42 44 45 46 48 51
30 28 32 36 36 38 36 35 39 40 42 44 45 48 47 44 41 36 32 30 29 30 31 33 34 34 34 35 37 39 42 43 44 45 46 46 45 44 45 46 47 49 52 55
31 29 32 33 34 37 36 37 40 41 42 45 43 47 49 45 41 37 34 33 33 34 35 35 35 35 36 37 39 40 43 44 45 46 46 45 46 46 47 48 50 53 56 59
31 30 30 31 32 34 35 35 38 41 42 43 40 45 46 42 39 37 36 36 37 37 37 37 37 36 36 38 39 41 43 44 45 45 45 46 48 49 49 50 53 56 59 62
34 31 28 29 29 29 32 34 37 40 41 41 40 43 41 38 37 37 36 36 37 37 37 37 36 36 36 37 39 41 43 44 44 46 47 48 50 50 50 51 55 58 61 63
33 31 27 28 27 29 31 35 36 39 40 42 42 42 40 37 35 34 34 34 34 34 34 35 34 34 35 37 40 42 45 46 47 47 48 50 50 50 50 54 58 61 62 62
35 33 28 28 28 27 30 33 37 39 41 43 43 42 39 35 33 33 33 33 33 34 34 34 34 35 37 40 43 45 48 49 50 50 50 50 49 50 54 58 60 61 61 58
38 36 31 30 29 26 27 31 35 39 42 44 46 43 38 35 33 33 33 33 34 34 36 37 38 39 41 43 45 46 49 52 53 52 50 49 50 52 56 59 59 58 56 55
41 39 36 33 31 30 31 32 35 38 41 44 47 45 39 37 35 34 33 34 35 35 35 35 38 41 43 45 47 48 51 52 52 51 49 48 50 53 56 56 55 54 53 53
44 43 41 37 35 35 34 36 37 40 42 44 46 45 40 38 37 36 35 36 36 37 38 39 41 43 44 46 48 49 50 50 51 50 48 51 52 53 53 52 52 52 51 50
47 46 45 43 41 40 39 38 39 41 43 46 47 46 43 42 40 39 39 38 38 39 41 42 43 45 47 49 50 49 49 49 49 49 51 52 51 49 49 50 50 50 48 46
51 51 51 50 49 47 45 44 44 44 45 47 47 48 48 47 47 46 45 44 43 43 44 45 46 47 49 50 50 49 50 49 50 51 50 49 48 48 48 49 49 47 45 45
53 56 56 56 55 55 53 50 49 49 49 50 49 49 48 49 49 49 48 48 48 48 49 49 49 49 50 50 50 50 49 49 49 49 48 47 47 48 48 48 46 45 45 46
49 53 57 58 59 59 58 55 55 56 56 57 57 55 54 53 52 52 51 50 50 51 51 51 51 52 51 51 50 48 48 48 47 47 46 46 47 47 47 45 44 44 46 48
41 45 49 53 55 58 56 56 56 56 56 57 58 58 58 58 56 56 56 55 54 54 54 54 54 54 53 51 48 48 47 46 45 45 45 46 46 45 44 43 44 46 48 50
39 41 44 46 49 51 51 53 53 54 53 51 51 52 54 54 55 56 55 55 55 55 55 54 53 50 49 46 44 43 43 44 43 44 45 45 44 43 42 43 46 48 50 50
37 40 42 44 47 49 49 50 50 51 49 46 46 46 46 47 49 48 48 48 49 49 49 48 46 44 44 42 39 39 40 41 42 43 42 42 41 41 43 45 47 48 48 48
32 34 35 37 40 43 44 45 46 45 44 42 41 42 42 43 43 43 43 42 42 42 41 40 39 39 37 34 34 35 37 39 40 39 39 38 39 42 44 46 46 46 46 46
28 29 30 31 32 33 35 36 38 39 38 36 36 36 36 37 37 37 37 37 35 35 35 35 34 31 30 29 31 33 35 36 36 35 36 38 41 43 44 44 44 43 43 43
26 26 27 27 27 28 29 30 31 32 31 30 30 31 31 30 30 29 29 29 29 27 26 25 24 23 24 26 29 31 32 32 32 33 35 39 41 42 42 41 41 40 40 40
24 24 24 24 24 25 26 27 28 28 27 25 24 23 23 22 21 22 22 22 22 20 18 18 18 19 22 25 27 28 28 29 30 33 36 39 39 40 39 38 38 37 37 37
21 21 21 21 22 22 21 21 21 20 19 18 16 15 16 16 16 16 15 15 14 13 13 13 15 18 21 23 24 24 25 27 31 34 36 37 38 37 37 36 35 34 34 33
16 16 16 15 15 15 14 13 13 12 12 13 14 14 14 13 12 12 10 9 8 8 9 12 15 17 18 19 19 21 24 28 31 33 35 35 36 35 35 34 33 32 31 31
Wind_Direction
246 244 242 241 241 241 243 244 244 240 242 249 253 256 258 257 259 263 266 269 270 275 284 291 299 305 309 310 312 314 315 316 318 320 321 323 325 326 327 328 327 326 325 323
243 245 244 242 241 241 242 244 245 241 242 247 251 254 258 258 259 263 265 264 265 270 277 284 293 299 303 306 309 310 311 312 313 315 316 318 319 321 323 324 324 324 323 323
245 243 241 242 243 243 244 246 246 243 240 246 251 254 256 258 259 261 263 263 265 269 274 280 288 294 300 304 306 307 307 309 310 311 312 313 314 315 318 320 321 321 321 321
248 245 243 244 245 246 246 247 245 241 239 241 249 253 255 257 259 261 262 263 265 269 273 279 285 291 295 299 301 303 304 305 306 308 308 308 310 311 313 315 317 317 318 318
250 249 247 246 246 248 247 245 245 244 243 244 248 255 259 258 259 261 262 264 265 268 272 277 283 288 292 295 297 299 300 301 302 304 305 306 307 308 310 312 313 315 316 316
250 248 248 248 247 247 246 243 246 247 248 249 250 254 258 259 261 262 264 266 267 270 273 277 281 284 287 290 293 294 296 297 299 301 303 304 306 306 308 309 311 313 314 315
250 248 248 249 248 248 248 245 246 247 249 253 254 254 258 260 261 264 267 269 270 271 272 275 278 280 283 287 289 291 292 295 297 299 301 303 304 305 306 308 310 312 313 314
248 244 246 248 249 250 250 247 245 248 251 254 254 256 258 260 263 267 270 272 273 273 273 274 276 278 281 284 286 288 291 293 294 296 300 302 302 303 305 307 309 311 312 312
252 246 239 242 242 241 241 243 246 249 252 255 255 258 260 262 266 270 273 275 274 274 274 275 276 277 279 281 284 287 289 290 291 294 296 298 299 301 303 306 308 309 309 310
253 249 238 236 239 241 240 239 240 246 253 258 261 262 264 267 270 273 274 276 276 275 274 275 277 279 280 283 285 288 289 290 291 292 294 296 299 301 305 307 307 307 308 309
253 253 244 236 237 238 239 239 242 246 251 257 262 265 269 272 274 275 277 277 278 278 277 278 280 283 284 285 287 290 292 290 289 289 292 296 301 304 306 307 307 307 308 309
252 254 251 244 240 239 240 242 244 247 250 255 261 265 269 272 275 276 277 278 280 282 282 283 286 287 288 289 289 292 291 289 288 290 296 302 306 308 308 307 307 308 309 309
252 254 255 253 249 246 246 246 247 249 253 257 262 267 269 272 273 275 278 280 282 283 284 286 288 290 292 294 295 294 290 289 292 297 304 310 311 309 308 308 309 310 310 310
250 252 255 255 255 253 252 252 253 253 255 259 263 268 270 273 275 276 279 282 284 285 287 288 290 292 293 296 297 296 295 296 299 304 310 312 310 309 310 310 311 311 311 310
248 250 253 255 257 257 257 257 259 260 261 262 265 267 270 273 275 277 278 281 283 285 288 289 290 293 295 297 297 296 298 300 305 310 311 310 310 311 312 312 312 312 311 310
247 249 252 254 256 258 260 261 263 264 266 268 268 269 271 273 274 275 278 280 281 283 286 288 290 293 295 296 298 300 302 305 309 310 310 310 312 313 313 313 313 312 311 312
250 251 253 255 257 259 262 264 265 266 267 269 269 270 271 272 273 275 276 278 281 282 284 287 290 293 295 297 300 300 303 306 308 309 310 312 313 313 314 314 313 313 313 314
255 256 257 258 259 260 264 265 265 265 266 267 268 269 270 271 272 272 274 276 278 281 284 286 289 291 294 297 297 298 301 305 308 309 311 313 314 314 314 313 313 314 315 315
258 259 260 261 262 264 264 266 267 266 266 266 267 267 268 269 271 271 273 274 276 278 280 283 286 289 291 289 289 295 301 305 308 310 312 314 314 314 314 314 315 316 316 316
261 261 262 262 264 265 266 266 266 267 268 267 267 266 266 266 267 269 271 271 273 274 277 279 281 282 281 282 289 298 302 305 309 311 313 314 313 313 314 316 316 317 316 316
266 265 265 265 265 266 267 268 269 269 269 267 267 266 266 265 266 267 268 269 271 273 274 273 271 270 275 285 294 299 303 307 311 313 313 313 313 314 316 317 317 317 317 318
270 270 269 269 269 269 268 268 269 270 269 268 266 265 264 263 264 265 267 268 270 269 264 261 261 268 280 290 297 301 306 310 312 312 312 313 315 316 318 318 318 319 320 322
268 269 270 271 271 271 270 270 270 269 269 267 265 263 262 261 261 262 264 263 262 259 255 259 268 280 289 295 301 306 310 311 312 312 314 316 317 318 319 320 321 323 324 326
266 266 267 268 269 270 271 272 269 268 267 265 263 259 255 251 251 255 255 253 247 249 260 269 280 290 297 303 308 310 311 312 313 315 317 319 320 321 322 323 325 326 328 329
264 265 265 268 270 270 270 269 267 264 260 258 249 239 236 233 235 242 238 236 241 253 264 278 291 300 306 309 311 311 312 314 317 319 321 323 324 325 326 327 328 330 331 332
262 266 268 266 263 263 262 261 257 251 241 224 218 218 210 212 222 222 220 224 238 258 280 295 304 309 312 312 313 315 317 320 322 324 326 327 327 328 329 330 332 333 335 336
Height
5825 5829 5833 5836 5836 5837 5838 5840 5844 5847 5846 5844 5843 5844 5844 5845 5846 5847 5848 5850 5851 5851 5851 5850 5849 5847 5845 5843 5841 5839 5838 5837 5835 5833 5831 5828 5825 5822 5819 5816 5812 5809 5805 5801
5819 5823 5827 5827 5827 5829 5831 5833 5837 5841 5839 5836 5836 5836 5838 5839 5840 5842 5843 5844 5844 5845 5845 5844 5843 5841 5839 5837 5835 5833 5832 5830 5828 5825 5823 5820 5817 5814 5811 5807 5804 5800 5795 5791
5811 5817 5818 5819 5820 5822 5825 5828 5831 5833 5831 5828 5829 5829 5831 5833 5834 5836 5837 5838 5838 5839 5839 5838 5837 5835 5833 5831 5829 5827 5825 5822 5820 5817 5814 5812 5809 5805 5802 5798 5794 5790 5785 5781
5803 5808 5810 5811 5813 5815 5818 5822 5823 5823 5823 5822 5822 5820 5825 5826 5828 5830 5831 5832 5832 5833 5833 5832 5830 5829 5827 5825 5823 5820 5818 5815 5812 5809 5806 5803 5800 5797 5793 5790 5786 5781 5776 5770
5798 5801 5802 5803 5807 5808 5811 5813 5813 5814 5814 5815 5815 5814 5816 5819 5821 5824 5825 5826 5826 5826 5826 5825 5824 5822 5820 5818 5816 5814 5811 5807 5804 5801 5798 5795 5792 5788 5785 5781 5776 5771 5765 5759
5792 5794 5794 5796 5799 5800 5802 5804 5804 5805 5806 5807 5811 5809 5808 5812 5815 5817 5818 5818 5819 5819 5819 5818 5817 5815 5813 5811 5809 5806 5803 5800 5797 5794 5790 5787 5783 5780 5776 5771 5766 5760 5753 5746
5786 5787 5788 5790 5792 5793 5795 5798 5798 5797 5798 5799 5804 5801 5802 5806 5808 5809 5810 5811 5811 5811 5811 5810 5809 5808 5806 5803 5801 5798 5795 5792 5789 5785 5781 5778 5774 5770 5765 5760 5754 5747 5740 5733
5777 5781 5783 5784 5786 5788 5788 5790 5791 5791 5792 5793 5795 5793 5798 5800 5801 5802 5802 5802 5802 5802 5802 5802 5801 5799 5797 5795 5792 5789 5786 5783 5780 5776 5772 5768 5764 5759 5754 5749 5743 5736 5728 5720
5770 5774 5777 5776 5778 5780 5781 5782 5785 5785 5784 5784 5786 5788 5791 5794 5795 5795 5795 5795 5794 5794 5794 5793 5792 5790 5789 5786 5784 5781 5778 5774 5770 5766 5762 5758 5754 5749 5744 5738 5731 5724 5716 5707
5763 5767 5771 5771 5772 5773 5775 5777 5778 5778 5777 5776 5778 5780 5784 5788 5789 5788 5788 5787 5787 5786 5786 5785 5784 5782 5780 5778 5775 5771 5768 5764 5760 5756 5752 5747 5743 5738 5733 5726 5719 5711 5702 5694
5757 5760 5765 5766 5766 5768 5769 5770 5771 5771 5771 5771 5769 5775 5778 5780 5781 5781 5781 5780 5780 5779 5778 5777 5776 5774 5771 5769 5765 5761 5757 5753 5749 5745 5741 5737 5732 5727 5720 5713 5705 5697 5689 5681
5749 5752 5756 5760 5762 5762 5763 5764 5764 5765 5765 5764 5762 5768 5771 5773 5773 5774 5774 5773 5772 5772 5770 5769 5767 5765 5762 5758 5755 5751 5747 5742 5738 5734 5730 5725 5720 5714 5707 5700 5692 5684 5676 5668
5741 5743 5746 5751 5756 5756 5756 5757 5757 5758 5758 5757 5756 5761 5764 5765 5765 5766 5766 5765 5765 5764 5763 5761 5759 5756 5753 5749 5745 5741 5736 5732 5727 5722 5717 5712 5707 5701 5694 5686 5679 5671 5663 5656
5732 5734 5737 5740 5743 5745 5747 5748 5749 5750 5750 5750 5750 5752 5755 5756 5757 5758 5758 5757 5756 5755 5754 5752 5749 5747 5743 5739 5735 5731 5726 5721 5716 5712 5706 5701 5694 5688 5681 5673 5666 5659 5651 5644
5723 5724 5726 5728 5731 5734 5736 5739 5740 5741 5741 5742 5743 5744 5747 5748 5748 5748 5748 5748 5747 5746 5744 5742 5739 5736 5733 5729 5725 5720 5716 5711 5706 5701 5695 5689 5682 5675 5668 5661 5654 5647 5640 5633
5712 5714 5715 5717 5720 5721 5724 5728 5731 5732 5733 5733 5733 5735 5737 5737 5737 5738 5738 5738 5737 5736 5734 5732 5729 5726 5723 5719 5715 5710 5705 5701 5696 5690 5684 5677 5671 5664 5657 5650 5643 5636 5629 5622
5701 5703 5704 5706 5708 5709 5712 5718 5720 5721 5722 5723 5722 5725 5725 5725 5726 5727 5727 5727 5726 5725 5723 5721 5718 5716 5712 5709 5705 5700 5696 5690 5685 5679 5673 5666 5660 5653 5646 5639 5633 5626 5619 5611
5691 5692 5693 5695 5697 5698 5705 5704 5706 5707 5709 5709 5710 5711 5712 5713 5714 5714 5715 5716 5715 5715 5713 5710 5708 5706 5702 5699 5695 5690 5686 5681 5675 5669 5663 5656 5649 5642 5636 5630 5623 5616 5608 5600
5681 5682 5683 5684 5684 5686 5691 5691 5690 5691 5694 5696 5697 5698 5699 5699 5699 5701 5703 5704 5704 5703 5701 5700 5698 5695 5693 5690 5686 5681 5677 5671 5665 5659 5653 5646 5640 5634 5627 5621 5613 5606 5597 5589
5672 5672 5674 5674 5674 5675 5677 5676 5676 5678 5681 5683 5683 5684 5685 5686 5688 5690 5690 5690 5690 5690 5690 5689 5688 5686 5683 5680 5676 5672 5668 5663 5657 5650 5644 5638 5632 5626 5619 5612 5604 5596 5587 5579
5662 5663 5663 5663 5663 5664 5664 5664 5664 5667 5669 5670 5670 5672 5673 5675 5677 5678 5678 5679 5680 5680 5680 5679 5678 5676 5674 5671 5668 5665 5660 5655 5648 5642 5637 5631 5625 5618 5611 5603 5595 5586 5578 5569
5653 5653 5653 5653 5653 5656 5653 5653 5654 5654 5656 5657 5659 5660 5662 5664 5665 5667 5668 5669 5670 5671 5671 5671 5669 5668 5666 5664 5661 5657 5652 5647 5641 5636 5630 5624 5617 5610 5602 5594 5586 5577 5569 5561
5646 5646 5645 5645 5647 5645 5644 5643 5644 5644 5646 5647 5648 5650 5652 5654 5657 5659 5660 5662 5663 5664 5664 5664 5663 5662 5660 5658 5655 5650 5645 5640 5635 5630 5624 5617 5610 5602 5594 5586 5578 5569 5561 5553
5638 5638 5638 5638 5638 5637 5636 5635 5635 5636 5637 5639 5640 5643 5645 5648 5650 5653 5655 5656 5658 5659 5660 5660 5659 5657 5655 5652 5648 5644 5640 5635 5630 5624 5618 5610 5602 5594 5586 5578 5570 5563 5555 5547
5631 5632 5631 5631 5631 5630 5629 5628 5629 5629 5630 5632 5634 5637 5640 5643 5646 5649 5650 5652 5653 5655 5656 5655 5654 5652 5650 5647 5643 5639 5635 5630 5625 5618 5611 5603 5595 5587 5579 5572 5564 5557 5550 5542
5626 5627 5627 5626 5626 5625 5624 5624 5624 5625 5626 5629 5631 5634 5638 5641 5643 5646 5648 5650 5651 5652 5652 5651 5650 5648 5645 5642 5639 5636 5631 5626 5620 5613 5605 5597 5589 5581 5573 5566 5559 5551 5545 5538